FW4702 Weather Reports


Display with metric or nautical units.
time (UTC)temp
F
wind
direction
speed
MPH
gust
MPH
rain 1hr
in
rain 24hr
in
rain mn
in
humidity
%
barometer
mb
20260506152057 68 195 2.0 4.0 0.00 0.52 0.52 96 1013.1
20260506151555 68 207 2.0 5.0 0.00 0.52 0.52 96 1013.0
20260506151056 67 193 2.0 5.0 0.00 0.52 0.52 97 1012.8
20260506150555 67 205 3.0 5.0 0.00 0.52 0.52 96 1012.7
20260506150056 67 192 1.0 4.0 0.00 0.52 0.52 97 1012.8
20260506145600 66 182 2.0 4.0 0.00 0.52 0.52 97 1012.9
20260506145056 66 192 1.0 3.0 0.00 0.52 0.52 97 1013.0
20260506144556 66 224 1.0 3.0 0.00 0.52 0.52 96 1012.7
20260506144056 66 184 1.0 4.0 0.00 0.52 0.52 96 1012.9
20260506143556 66 175 1.0 4.0 0.01 0.52 0.52 97 1013.1
20260506143056 66 202 1.0 5.0 0.04 0.52 0.52 96 1013.1
20260506142556 65 0 1.0 6.0 0.11 0.52 0.52 97 1013.1
20260506142056 65 178 1.0 6.0 0.25 0.52 0.52 96 1013.2
20260506141555 65 188 1.0 2.0 0.37 0.52 0.52 96 1013.6
20260506141056 65 201 1.0 3.0 0.44 0.52 0.52 96 1013.4
20260506140559 64 175 1.0 4.0 0.47 0.52 0.52 95 1013.1
20260506140056 64 178 1.0 4.0 0.49 0.52 0.52 95 1013.3
20260506135556 65 204 1.0 3.0 0.50 0.52 0.52 95 1013.3
20260506135056 65 195 0.0 3.0 0.51 0.52 0.52 95 1013.2
20260506134618 65 0 0.0 3.0 0.52 0.52 0.52 95 1012.7
20260506134100 65 0 2.0 3.0 0.52 0.52 0.52 95 1013.3
20260506133557 65 208 0.0 2.0 0.51 0.52 0.51 94 1013.3
20260506133056 66 0 0.0 4.0 0.47 0.48 0.47 94 1013.1
20260506132556 66 137 0.0 4.0 0.40 0.41 0.40 94 1014.3
20260506132056 66 333 1.0 8.0 0.27 0.28 0.27 93 1014.5
20260506131608 66 0 1.0 8.0 0.15 0.16 0.15 93 1014.6
20260506131054 66 304 4.0 8.0 0.08 0.09 0.08 93 1013.8
20260506130556 66 0 2.0 4.0 0.05 0.06 0.05 92 1013.7
20260506130055 66 221 1.0 3.0 0.03 0.04 0.03 91 1013.1
20260506125556 67 206 1.0 5.0 0.02 0.03 0.02 90 1013.1
20260506125056 67 232 1.0 5.0 0.01 0.02 0.01 89 1013.1
20260506124556 68 229 2.0 5.0 0.00 0.01 0.00 88 1013.1
20260506124057 68 213 2.0 5.0 0.00 0.01 0.00 86 1013.0
20260506123556 68 200 1.0 4.0 0.00 0.01 0.00 85 1012.9
20260506123058 68 195 2.0 4.0 0.00 0.01 0.00 85 1012.9
20260506122556 68 199 1.0 5.0 0.00 0.01 0.00 85 1012.9
20260506122055 68 209 2.0 5.0 0.00 0.01 0.00 85 1012.7
20260506121605 68 185 0.0 5.0 0.00 0.01 0.00 85 1012.6
20260506121057 68 196 2.0 5.0 0.00 0.01 0.00 84 1012.2
20260506120557 68 204 2.0 4.0 0.00 0.01 0.00 84 1012.1
20260506115557 68 203 2.0 4.0 0.00 0.01 0.00 84 1012.1
20260506115057 68 193 1.0 5.0 0.00 0.01 0.00 84 1012.1
20260506114556 68 219 2.0 5.0 0.00 0.01 0.00 83 1012.0
20260506114056 68 188 2.0 5.0 0.00 0.01 0.00 84 1011.9
20260506113556 68 194 2.0 3.0 0.00 0.01 0.00 83 1011.7
20260506113054 68 189 1.0 3.0 0.00 0.01 0.00 83 1011.6
20260506112556 68 136 1.0 5.0 0.00 0.01 0.00 83 1011.6
20260506112056 68 198 2.0 5.0 0.00 0.01 0.00 83 1011.4
20260506111612 68 221 1.0 5.0 0.00 0.01 0.00 83 1011.1
20260506111057 68 178 1.0 5.0 0.00 0.01 0.00 83 1011.0
20260506110556 68 198 1.0 5.0 0.00 0.01 0.00 82 1011.2
20260506110055 68 189 2.0 4.0 0.00 0.01 0.00 82 1011.2
20260506105556 68 200 1.0 4.0 0.00 0.01 0.00 82 1011.0
20260506105056 68 185 1.0 5.0 0.00 0.01 0.00 82 1011.1
20260506104559 68 202 2.0 5.0 0.00 0.01 0.00 82 1011.1
20260506104055 68 0 1.0 3.0 0.00 0.01 0.00 82 1011.2
20260506103557 68 0 1.0 3.0 0.00 0.01 0.00 82 1011.0
20260506103101 68 0 1.0 6.0 0.00 0.01 0.00 82 1011.1
20260506102557 69 203 0.0 6.0 0.00 0.01 0.00 82 1010.9
20260506102057 69 186 1.0 5.0 0.00 0.01 0.00 81 1010.9
20260506101557 69 199 1.0 5.0 0.00 0.01 0.00 81 1010.8
20260506101057 69 211 2.0 5.0 0.00 0.01 0.00 81 1010.7
20260506100556 69 178 2.0 5.0 0.00 0.01 0.00 80 1010.7
20260506100101 69 0 1.0 5.0 0.00 0.01 0.00 80 1010.6
20260506095556 69 202 1.0 4.0 0.00 0.01 0.00 80 1010.6
20260506095056 69 200 1.0 4.0 0.00 0.01 0.00 80 1010.3
20260506094555 69 207 2.0 5.0 0.00 0.01 0.00 80 1010.1
20260506094055 69 180 2.0 5.0 0.00 0.01 0.00 80 1010.2
20260506093559 69 204 2.0 5.0 0.00 0.01 0.00 79 1010.3
20260506093058 69 220 2.0 5.0 0.00 0.01 0.00 79 1010.3
20260506092557 69 182 2.0 6.0 0.00 0.01 0.00 79 1010.3
20260506092100 69 187 2.0 6.0 0.00 0.01 0.00 79 1010.3
20260506091555 69 170 2.0 6.0 0.00 0.01 0.00 79 1010.2
20260506091056 69 211 2.0 5.0 0.00 0.01 0.00 78 1010.3
20260506090557 69 186 2.0 5.0 0.00 0.01 0.00 78 1010.4
20260506090056 69 201 3.0 5.0 0.00 0.01 0.00 78 1010.3
20260506085556 69 181 2.0 5.0 0.00 0.01 0.00 78 1010.4
20260506085056 69 186 3.0 5.0 0.00 0.01 0.00 78 1010.5
20260506084605 69 78 1.0 8.0 0.00 0.01 0.00 78 1010.2
20260506084056 69 221 2.0 9.0 0.00 0.01 0.00 78 1010.2
20260506083557 69 202 3.0 9.0 0.00 0.01 0.00 77 1010.2
20260506083114 70 163 3.0 7.0 0.00 0.01 0.00 76 1010.2
20260506082559 70 217 2.0 7.0 0.00 0.01 0.00 76 1010.2
20260506082057 70 235 3.0 7.0 0.00 0.01 0.00 75 1010.2
20260506081558 70 169 2.0 6.0 0.00 0.01 0.00 75 1010.2
20260506081057 70 211 3.0 6.0 0.00 0.01 0.00 74 1010.1
20260506080557 70 200 2.0 7.0 0.00 0.01 0.00 74 1010.1
20260506073056 70 198 2.0 8.0 0.00 0.01 0.00 72 1010.3
20260506072557 70 206 2.0 8.0 0.00 0.01 0.00 72 1010.4
20260506072057 70 188 3.0 8.0 0.00 0.01 0.00 72 1010.3
20260506071556 70 217 3.0 6.0 0.00 0.01 0.00 72 1010.2
20260506071058 70 192 2.0 5.0 0.00 0.01 0.00 72 1010.1
20260506070556 70 271 2.0 6.0 0.00 0.01 0.00 72 1010.1
20260506070119 70 215 2.0 6.0 0.00 0.01 0.00 72 1010.0
20260506062057 71 181 2.0 5.0 0.00 0.01 0.00 71 1010.3
20260506061556 70 216 1.0 6.0 0.00 0.01 0.00 71 1010.7
20260506061057 71 185 2.0 6.0 0.00 0.01 0.00 71 1010.7
20260506060556 70 194 1.0 5.0 0.00 0.01 0.00 71 1010.7
20260506051059 69 0 0.0 1.0 0.00 0.01 0.00 71 1011.2
20260506050556 70 0 0.0 1.0 0.00 0.01 0.00 71 1011.2
20260506050109 70 0 0.0 1.0 0.00 0.01 0.00 70 1011.5
20260506045059 70 0 0.0 2.0 0.00 0.01 0.01 70 1011.5
20260506044558 70 177 0.0 2.0 0.00 0.01 0.01 70 1011.4
20260506044056 70 210 0.0 2.0 0.00 0.01 0.01 70 1011.3
20260506043557 70 193 0.0 2.0 0.00 0.01 0.01 70 1011.3
20260506043058 70 0 0.0 2.0 0.00 0.01 0.01 69 1011.4
20260506042557 70 184 0.0 2.0 0.00 0.01 0.01 69 1011.5
20260506042057 70 196 0.0 2.0 0.00 0.01 0.01 69 1011.5
20260506041603 70 196 1.0 3.0 0.00 0.01 0.01 69 1011.5
20260506041056 70 0 1.0 4.0 0.00 0.01 0.01 69 1011.5
20260506040559 70 178 1.0 4.0 0.00 0.01 0.01 69 1011.5
20260506040101 71 198 1.0 4.0 0.00 0.01 0.01 69 1011.5
20260506035556 71 172 1.0 4.0 0.00 0.01 0.01 68 1011.5
20260506035056 71 170 1.0 3.0 0.00 0.01 0.01 68 1011.5
20260506034600 71 177 1.0 3.0 0.00 0.01 0.01 68 1011.4
20260506034056 71 203 1.0 3.0 0.00 0.01 0.01 68 1011.5
20260506033556 71 218 1.0 3.0 0.00 0.01 0.01 68 1011.5
20260506033056 71 207 1.0 3.0 0.00 0.01 0.01 68 1011.5
20260506032559 71 187 1.0 3.0 0.00 0.01 0.01 68 1011.4
20260506032100 71 188 1.0 4.0 0.00 0.01 0.01 68 1011.5
20260506031555 71 202 1.0 6.0 0.00 0.01 0.01 68 1011.5
20260506031056 71 190 1.0 6.0 0.00 0.01 0.01 68 1011.4
20260506030556 71 192 1.0 4.0 0.00 0.01 0.01 68 1011.5
20260506030059 71 199 1.0 4.0 0.00 0.01 0.01 68 1011.5
20260506025558 71 190 1.0 4.0 0.00 0.01 0.01 68 1011.6
20260506025056 71 183 1.0 3.0 0.00 0.01 0.01 68 1011.6
20260506024601 71 184 1.0 3.0 0.00 0.01 0.01 68 1011.4
20260506024056 70 185 0.0 5.0 0.00 0.01 0.01 69 1011.3
20260506023556 70 0 0.0 5.0 0.00 0.01 0.01 69 1011.3
20260506023054 70 0 1.0 4.0 0.00 0.01 0.01 69 1011.3
20260506022557 70 219 1.0 5.0 0.00 0.01 0.01 69 1011.3
20260506022056 70 201 1.0 5.0 0.00 0.01 0.01 70 1011.3
20260506021554 70 190 1.0 3.0 0.00 0.01 0.01 70 1011.2
20260506021056 70 216 1.0 5.0 0.00 0.01 0.01 70 1011.2
20260506020556 70 209 1.0 5.0 0.00 0.01 0.01 70 1011.1
20260506020108 70 199 1.0 5.0 0.00 0.01 0.01 70 1010.6
20260506015557 70 0 0.0 4.0 0.00 0.01 0.01 70 1010.7
20260506015057 70 197 0.0 5.0 0.00 0.01 0.01 69 1011.0
20260506014611 70 0 1.0 5.0 0.00 0.01 0.01 69 1011.1
20260506014056 70 215 1.0 3.0 0.00 0.01 0.01 69 1011.3
20260506013555 70 171 1.0 4.0 0.00 0.01 0.01 69 1011.4
20260506013057 70 171 0.0 4.0 0.00 0.01 0.01 69 1011.3
20260506012556 70 0 0.0 3.0 0.00 0.01 0.01 69 1011.2
20260506012056 70 0 0.0 3.0 0.00 0.01 0.01 69 1011.3
20260506011619 70 173 1.0 3.0 0.00 0.01 0.01 68 1011.1
20260506011056 70 179 1.0 3.0 0.00 0.01 0.01 68 1011.1
20260506010601 70 185 1.0 3.0 0.00 0.01 0.01 68 1011.2
20260506010056 70 0 1.0 3.0 0.00 0.01 0.01 68 1011.1
20260506005556 70 195 0.0 3.0 0.00 0.01 0.01 68 1011.1
20260506005055 70 219 1.0 3.0 0.00 0.01 0.01 67 1011.0
20260506004604 70 192 1.0 3.0 0.00 0.01 0.01 67 1011.1
20260506004056 70 215 1.0 3.0 0.00 0.01 0.01 67 1011.2
20260506003556 70 180 0.0 2.0 0.00 0.01 0.01 67 1011.2
20260506003058 70 193 0.0 4.0 0.00 0.01 0.01 67 1011.2
20260506002556 71 195 1.0 4.0 0.00 0.01 0.01 67 1011.0
20260506002055 71 179 1.0 4.0 0.00 0.01 0.01 67 1011.1
20260506001602 71 194 1.0 5.0 0.00 0.01 0.01 66 1011.1
20260506001057 71 180 1.0 5.0 0.00 0.01 0.01 66 1011.0
20260506000556 71 190 1.0 4.0 0.00 0.01 0.01 66 1011.1
20260506000120 71 184 1.0 4.0 0.00 0.01 0.01 66 1011.0
20260505235600 71 186 1.0 3.0 0.00 0.01 0.01 65 1011.1
20260505235056 71 196 1.0 3.0 0.00 0.01 0.01 66 1011.0
20260505234557 71 0 1.0 3.0 0.00 0.01 0.01 65 1011.1
20260505234056 71 194 1.0 3.0 0.00 0.01 0.01 65 1011.2
20260505233556 71 190 1.0 4.0 0.00 0.01 0.01 65 1011.3
20260505233100 71 194 1.0 4.0 0.00 0.01 0.01 65 1011.4
20260505232557 71 179 0.0 4.0 0.00 0.01 0.01 66 1011.5
20260505232057 71 179 0.0 5.0 0.00 0.01 0.01 65 1011.5
20260505231612 72 184 2.0 5.0 0.00 0.01 0.01 63 1011.6
20260505231056 71 184 1.0 4.0 0.00 0.01 0.01 65 1011.8
20260505230556 72 184 1.0 4.0 0.00 0.01 0.01 64 1011.9
20260505230107 72 187 1.0 4.0 0.00 0.01 0.01 63 1011.8
20260505225601 72 207 1.0 6.0 0.00 0.01 0.01 64 1011.8
20260505225057 72 199 1.0 6.0 0.00 0.01 0.01 63 1011.8
20260505224601 72 178 1.0 4.0 0.00 0.01 0.01 63 1011.8
20260505224059 72 189 1.0 7.0 0.00 0.01 0.01 63 1011.8
20260505223600 72 180 1.0 7.0 0.00 0.01 0.01 62 1011.9
20260505223056 72 175 2.0 7.0 0.00 0.01 0.01 62 1012.0
20260505222558 72 200 2.0 4.0 0.00 0.01 0.01 62 1012.2
20260505222057 72 188 1.0 4.0 0.00 0.01 0.01 63 1012.2
20260505221601 72 182 2.0 6.0 0.00 0.01 0.01 63 1012.2
20260505221055 72 207 1.0 6.0 0.00 0.01 0.01 64 1012.1
20260505220557 72 221 1.0 5.0 0.00 0.01 0.01 63 1011.9
20260505220058 72 186 2.0 5.0 0.00 0.01 0.01 62 1012.1
20260505215557 72 217 1.0 5.0 0.00 0.01 0.01 62 1012.2
20260505215057 72 173 1.0 5.0 0.00 0.01 0.01 62 1012.2
20260505214554 72 184 2.0 6.0 0.00 0.01 0.01 61 1012.1
20260505214100 72 186 3.0 6.0 0.00 0.01 0.01 61 1012.0
20260505213558 72 223 3.0 6.0 0.00 0.01 0.01 61 1012.1
20260505213057 72 189 3.0 6.0 0.00 0.01 0.01 60 1012.1
20260505212559 72 188 2.0 6.0 0.00 0.01 0.01 60 1012.2
20260505212056 72 183 2.0 6.0 0.00 0.01 0.01 61 1012.3
20260505211554 72 199 2.0 5.0 0.00 0.01 0.01 62 1012.2
20260505211056 72 194 2.0 6.0 0.00 0.01 0.01 61 1012.2
20260505210557 73 230 2.0 6.0 0.00 0.01 0.01 61 1012.2
20260505210057 72 186 3.0 6.0 0.00 0.01 0.01 60 1012.2
20260505205556 72 201 1.0 6.0 0.00 0.01 0.01 61 1012.2
20260505205057 72 188 2.0 3.0 0.00 0.01 0.01 62 1012.1
20260505204602 71 184 1.0 3.0 0.00 0.01 0.01 62 1012.0
20260505204056 71 182 1.0 4.0 0.00 0.01 0.01 62 1012.1
20260505203556 71 202 1.0 4.0 0.00 0.01 0.01 62 1011.9
20260505203101 71 194 1.0 5.0 0.00 0.01 0.01 61 1011.9
20260505202557 71 188 2.0 5.0 0.00 0.01 0.01 60 1011.9
20260505202057 71 214 2.0 5.0 0.00 0.01 0.01 60 1012.0
20260505201557 71 180 1.0 4.0 0.00 0.01 0.01 60 1012.1
20260505201058 71 186 1.0 4.0 0.00 0.01 0.01 61 1012.1
20260505200557 71 162 0.0 4.0 0.00 0.01 0.01 61 1012.1
20260505200100 71 223 1.0 5.0 0.00 0.01 0.01 61 1012.1
20260505195558 71 186 1.0 5.0 0.00 0.01 0.01 60 1012.3
20260505195056 71 176 0.0 5.0 0.00 0.01 0.01 61 1012.3
20260505194618 71 216 1.0 3.0 0.00 0.01 0.01 60 1012.2
20260505194056 71 169 1.0 3.0 0.00 0.01 0.01 60 1012.1
20260505193557 71 0 1.0 3.0 0.00 0.01 0.01 60 1012.0
20260505193054 71 0 0.0 4.0 0.00 0.01 0.01 60 1012.1
20260505192556 71 190 1.0 5.0 0.00 0.01 0.01 58 1012.3
20260505192056 71 210 1.0 5.0 0.00 0.01 0.01 56 1012.4
20260505191606 71 155 0.0 4.0 0.00 0.01 0.01 55 1012.5
20260505191057 72 184 1.0 5.0 0.00 0.01 0.01 53 1012.9
20260505190556 72 193 2.0 5.0 0.01 0.01 0.01 55 1013.6
20260505190056 72 215 0.0 4.0 0.01 0.01 0.01 58 1013.7
20260505185556 72 215 1.0 4.0 0.01 0.01 0.01 56 1013.9
20260505185057 72 201 2.0 4.0 0.01 0.01 0.01 54 1014.0
20260505184558 73 221 2.0 4.0 0.01 0.01 0.01 52 1014.0
20260505184057 73 228 1.0 4.0 0.01 0.01 0.01 53 1013.9
20260505183556 73 200 1.0 4.0 0.01 0.01 0.01 49 1014.0
20260505183057 74 207 2.0 4.0 0.01 0.01 0.01 50 1014.0
20260505182557 74 227 1.0 6.0 0.01 0.01 0.01 53 1013.9
20260505182100 74 200 2.0 6.0 0.01 0.01 0.01 51 1013.9
20260505181558 74 191 2.0 6.0 0.01 0.01 0.01 48 1014.0
20260505181058 73 196 2.0 6.0 0.01 0.01 0.01 47 1014.1
20260505180556 74 238 2.0 5.0 0.00 0.00 0.00 48 1014.2
20260505180058 74 0 2.0 5.0 0.00 0.00 0.00 52 1014.1
20260505175556 74 220 2.0 6.0 0.00 0.00 0.00 51 1014.1
20260505175056 74 176 3.0 6.0 0.00 0.00 0.00 50 1014.0
20260505174555 74 157 2.0 5.0 0.00 0.00 0.00 48 1014.0
20260505174057 74 221 2.0 5.0 0.00 0.00 0.00 51 1014.0
20260505173557 74 202 1.0 5.0 0.00 0.00 0.00 52 1014.0
20260505173113 73 0 1.0 5.0 0.00 0.00 0.00 50 1014.1
20260505172555 73 227 3.0 5.0 0.00 0.00 0.00 48 1014.2
20260505172056 73 209 2.0 5.0 0.00 0.00 0.00 53 1014.2
20260505171622 73 214 3.0 5.0 0.00 0.00 0.00 49 1014.3
20260505171059 73 180 2.0 5.0 0.00 0.00 0.00 52 1014.4
20260505170557 73 261 3.0 5.0 0.00 0.00 0.00 49 1014.4
20260505170055 72 218 3.0 5.0 0.00 0.00 0.00 55 1014.5
20260505165557 72 255 1.0 5.0 0.00 0.00 0.00 56 1014.6
20260505165056 72 192 1.0 6.0 0.00 0.00 0.00 57 1014.6
20260505164601 72 220 2.0 6.0 0.00 0.00 0.00 58 1014.6
20260505164056 73 226 2.0 5.0 0.00 0.00 0.00 55 1014.7
20260505163556 73 184 1.0 3.0 0.00 0.00 0.00 59 1014.5
20260505163057 72 222 1.0 4.0 0.00 0.00 0.00 60 1014.5
20260505162556 72 185 1.0 5.0 0.00 0.00 0.00 63 1014.6
20260505162057 72 202 1.0 5.0 0.00 0.00 0.00 60 1014.6
20260505161605 71 146 2.0 5.0 0.00 0.00 0.00 61 1014.6
20260505161057 71 217 2.0 6.0 0.00 0.00 0.00 61 1014.5
20260505160558 71 212 1.0 6.0 0.00 0.00 0.00 62 1014.5
20260505153057 69 151 0.0 4.0 0.00 0.00 0.00 63 1014.4
20260505152557 69 146 1.0 4.0 0.00 0.00 0.00 61 1014.4